Location: Lewisville
(33.0462°N, 96.9942°W)
Time: 01:19:04
(UTC-06:00)

Hubble Space Telescope - Visible Passes

Search period start: 15 November 2019 00:00
Search period end: 25 November 2019 00:00
Orbit: 536 x 540 km, 28.5° (Epoch: 14 November)

Date Brightness Start Highest point End Pass type
(mag) Time Alt. Az. Time Alt. Az. Time Alt. Az.
15 Nov 3.2 19:08:36 10° S 19:09:43 12° SSE 19:09:43 12° SSE visible
16 Nov 2.8 18:57:10 10° SSW 18:59:36 15° SSE 18:59:50 15° SSE visible
17 Nov 2.6 18:46:01 10° SSW 18:48:54 18° SSE 18:49:56 17° SE visible
18 Nov 2.5 18:35:01 10° SSW 18:38:14 22° SSE 18:39:59 17° SE visible
18 Nov 4.0 20:15:09 10° WSW 20:15:19 11° WSW 20:15:19 11° WSW visible
19 Nov 2.3 18:24:08 10° SW 18:27:34 26° SSE 18:30:01 15° ESE visible
19 Nov 3.6 20:04:29 10° WSW 20:05:22 15° WSW 20:05:22 15° WSW visible
20 Nov 2.1 18:13:18 10° SW 18:16:55 29° SSE 18:20:03 13° ESE visible
20 Nov 3.2 19:53:52 10° WSW 19:55:23 21° WSW 19:55:23 21° WSW visible
21 Nov 2.0 18:02:32 10° SW 18:06:16 33° SSE 18:10:01 10° ESE visible
21 Nov 2.7 19:43:14 10° WSW 19:45:24 27° SW 19:45:24 27° SW visible
22 Nov 1.9 17:51:49 10° WSW 17:55:38 37° S 17:59:28 10° ESE visible
22 Nov 2.2 19:32:38 10° WSW 19:35:26 34° SW 19:35:26 34° SW visible
23 Nov 1.8 17:41:08 10° WSW 17:45:00 40° S 17:48:53 10° ESE visible
23 Nov 1.8 19:22:03 10° WSW 19:25:30 39° SSW 19:25:30 39° SSW visible
24 Nov 1.7 19:11:27 10° WSW 19:15:18 37° S 19:15:37 37° S visible
